Wind_Speed
24 40 34 33 31 41 46 51 60 69 67 66 69 66 68 70 72 71 69 68 69 71 71 67 64 62 57 55 55 56 56 60
43 30 39 35 35 37 41 43 50 55 50 51 57 61 63 63 64 65 61 62 59 56 59 53 49 47 48 56 56 58 60 63
48 33 37 28 25 28 34 30 30 31 34 36 40 44 46 47 47 44 43 46 49 48 48 49 47 49 53 54 57 60 64 64
67 47 39 26 20 21 22 15 19 23 24 29 33 29 31 33 39 38 35 42 44 47 48 49 53 54 60 58 60 58 63 60
66 47 30 34 29 27 27 28 31 30 32 31 32 35 36 35 38 43 44 47 54 53 57 54 55 58 55 59 64 60 59 61
59 48 38 38 34 39 37 40 38 41 39 39 44 44 40 36 44 44 48 53 49 56 59 62 59 62 60 60 62 66 67 73
61 49 46 42 38 40 43 39 42 41 39 46 44 42 46 41 48 48 49 52 48 46 54 55 62 53 57 67 67 67 66 79
60 57 52 50 42 44 48 42 46 47 48 46 48 49 50 56 53 48 54 50 53 56 57 54 56 56 57 59 65 71 82 77
67 63 58 52 48 47 43 50 46 50 49 51 52 53 56 53 58 56 56 54 52 54 57 59 57 59 63 72 73 80 76 74
63 60 59 55 55 56 52 48 54 53 43 43 52 55 55 58 57 57 61 65 63 65 66 68 73 76 79 83 77 80 78 75
62 56 54 57 57 62 59 53 55 56 46 49 48 52 55 56 57 59 60 60 62 60 64 67 72 78 79 75 73 74 77 80
53 50 51 54 53 59 63 56 53 53 52 55 57 51 52 50 53 55 52 56 62 67 71 76 78 78 77 73 73 76 78 82
43 47 48 51 57 56 60 51 50 47 49 48 47 50 52 54 59 59 64 67 68 75 77 80 81 75 73 73 76 81 82 82
44 48 44 42 48 54 53 46 46 40 40 44 50 57 57 59 58 62 67 71 77 79 78 75 71 74 75 79 80 78 80 85
43 53 51 44 46 50 52 46 48 51 54 56 56 59 61 64 65 67 68 68 71 69 66 70 72 74 77 79 78 82 84 81
43 48 54 55 46 39 46 51 57 59 57 58 61 60 63 66 71 70 67 63 66 67 72 74 78 77 76 79 83 85 81 78
41 40 50 53 47 47 49 47 49 54 58 58 63 65 64 62 63 61 63 66 69 74 76 77 78 77 80 82 78 78 81 83
34 37 43 49 52 51 50 54 56 56 58 60 62 64 65 63 66 68 67 69 74 76 76 78 80 80 80 79 80 84 88 91
35 34 32 41 48 51 54 52 55 55 54 55 58 59 61 64 67 71 72 71 75 77 78 81 79 79 78 83 86 91 93 90
40 41 42 42 42 45 47 49 50 51 54 58 59 61 66 70 71 68 69 74 78 76 77 78 79 80 82 82 87 89 89 92
Wind_Direction
261 287 281 276 266 251 245 248 250 252 257 257 257 259 261 262 265 268 270 272 274 272 274 276 278 281 283 284 284 282 281 284
252 256 272 256 248 251 242 243 248 252 258 262 264 263 263 263 265 267 269 272 274 275 278 279 281 281 277 282 282 280 286 285
210 221 245 235 235 237 235 236 245 252 258 261 262 261 259 259 262 266 268 265 276 276 281 284 281 280 283 282 280 285 290 292
200 203 216 212 197 194 206 222 252 248 255 261 259 254 252 249 252 264 266 268 271 276 275 280 277 279 281 283 285 291 292 295
199 201 218 206 197 189 199 209 231 244 251 244 236 236 245 246 244 243 251 264 264 269 272 278 280 283 285 288 290 290 288 290
204 213 217 212 211 201 211 232 220 235 236 238 251 251 248 251 252 257 260 267 270 269 269 277 278 285 286 285 286 287 289 298
209 215 219 215 214 221 218 227 229 224 234 244 249 242 247 252 264 262 267 269 271 273 275 275 278 283 287 290 291 293 291 297
207 211 215 220 211 221 223 230 234 231 237 244 246 245 249 253 261 262 258 266 276 277 277 273 278 287 283 288 288 290 293 293
212 218 216 218 219 226 235 237 239 232 249 250 253 247 249 259 257 260 259 263 265 271 277 282 281 281 282 290 293 293 294 294
219 225 227 221 221 226 229 225 234 233 246 246 254 251 252 256 259 261 259 264 267 272 274 280 279 286 287 289 289 292 292 293
227 229 225 224 221 228 231 233 235 242 245 245 252 258 261 262 265 264 267 273 275 274 276 280 284 286 287 289 289 290 293 296
220 220 221 225 227 228 232 240 240 246 249 251 249 259 259 264 268 268 269 271 273 274 276 283 285 288 287 288 292 293 294 296
211 210 219 226 228 228 232 238 240 243 246 253 252 253 260 264 267 272 269 273 277 277 278 281 286 286 288 290 293 297 296 295
213 216 223 227 234 231 235 241 241 247 252 254 261 265 269 269 269 271 274 276 275 277 281 280 283 289 290 293 294 294 294 297
221 221 226 235 240 236 237 245 244 244 249 253 255 260 265 268 272 274 277 278 280 282 283 287 287 291 291 292 292 293 295 294
227 230 232 236 239 242 247 252 254 253 253 258 261 263 267 270 271 274 276 281 284 285 285 287 288 290 290 294 295 295 295 297
232 242 238 234 239 248 248 249 250 252 257 259 263 264 266 273 276 278 278 278 281 284 289 288 289 292 292 293 292 293 296 298
244 251 247 247 247 250 253 255 255 256 258 260 266 269 271 274 278 281 280 284 286 285 287 289 291 293 294 295 296 297 295 295
243 253 253 251 249 255 256 260 262 263 267 271 271 271 274 277 280 284 285 285 285 286 289 291 292 293 292 290 291 290 292 295
246 251 253 257 258 261 258 260 265 265 267 275 275 275 277 278 278 277 280 285 286 286 287 288 287 287 288 289 290 291 294 295
Height
10732 10734 10727 10724 10722 10725 10730 10733 10736 10740 10744 10745 10750 10753 10758 10760 10760 10761 10761 10762 10761 10758 10758 10758 10758 10757 10757 10756 10755 10754 10753 10752
10730 10719 10722 10719 10715 10720 10720 10723 10727 10733 10736 10737 10740 10745 10746 10750 10751 10751 10751 10750 10748 10746 10750 10749 10750 10749 10749 10747 10746 10745 10743 10743
10722 10716 10713 10711 10710 10714 10716 10720 10726 10728 10730 10730 10734 10735 10735 10739 10740 10741 10742 10741 10741 10741 10740 10740 10740 10740 10739 10738 10736 10736 10733 10732
10703 10705 10702 10704 10706 10708 10712 10718 10721 10721 10724 10726 10728 10728 10728 10731 10732 10733 10735 10735 10735 10734 10734 10733 10732 10731 10730 10730 10728 10726 10721 10721
10696 10692 10693 10696 10701 10705 10709 10709 10714 10716 10718 10719 10721 10722 10724 10724 10725 10726 10727 10728 10728 10727 10727 10725 10723 10723 10721 10720 10718 10714 10710 10708
10684 10684 10687 10690 10694 10698 10702 10703 10704 10709 10712 10715 10715 10715 10716 10717 10718 10719 10720 10720 10718 10718 10718 10717 10714 10713 10712 10709 10706 10704 10702 10693
10676 10677 10680 10685 10690 10694 10695 10696 10700 10703 10706 10707 10708 10707 10709 10711 10711 10711 10710 10710 10710 10711 10709 10708 10706 10703 10701 10699 10695 10691 10689 10681
10669 10670 10677 10684 10687 10688 10690 10692 10695 10697 10697 10698 10700 10702 10703 10703 10703 10706 10704 10702 10702 10701 10698 10697 10696 10695 10692 10688 10683 10678 10675 10673
10664 10667 10674 10676 10682 10682 10684 10686 10687 10690 10691 10692 10693 10692 10693 10694 10695 10697 10698 10696 10692 10692 10690 10688 10686 10682 10680 10676 10669 10665 10660 10657
10660 10664 10666 10670 10673 10672 10675 10674 10678 10680 10683 10683 10682 10683 10682 10684 10687 10687 10686 10686 10684 10682 10681 10678 10675 10671 10668 10661 10657 10651 10647 10642
10655 10656 10660 10662 10664 10666 10671 10673 10673 10676 10678 10678 10676 10674 10677 10677 10678 10679 10679 10676 10674 10672 10669 10665 10663 10659 10653 10647 10642 10637 10630 10625
10648 10649 10651 10652 10655 10659 10664 10668 10668 10668 10669 10669 10669 10669 10669 10668 10670 10670 10669 10666 10663 10660 10657 10654 10649 10646 10641 10633 10627 10622 10619 10611
10638 10641 10644 10647 10651 10655 10656 10659 10661 10660 10662 10661 10663 10662 10662 10664 10662 10662 10658 10654 10651 10648 10645 10641 10635 10631 10625 10621 10616 10606 10601 10596
10634 10636 10638 10641 10645 10649 10651 10653 10656 10656 10655 10653 10651 10654 10653 10655 10652 10650 10648 10644 10640 10637 10632 10626 10622 10615 10613 10607 10599 10598 10589 10577
10629 10631 10634 10639 10641 10644 10646 10646 10647 10649 10645 10645 10647 10644 10641 10642 10641 10638 10636 10630 10627 10623 10618 10611 10608 10605 10594 10590 10583 10577 10575 10569
10624 10627 10629 10633 10636 10638 10639 10638 10638 10638 10638 10636 10635 10635 10635 10631 10625 10625 10622 10618 10613 10609 10603 10598 10591 10593 10583 10571 10561 10556 10553 10548
10620 10622 10624 10626 10628 10628 10628 10628 10628 10630 10629 10628 10626 10625 10623 10619 10611 10612 10607 10607 10600 10592 10588 10582 10576 10571 10566 10561 10553 10546 10538 10532
10612 10614 10615 10617 10619 10619 10619 10620 10620 10620 10618 10617 10615 10612 10609 10606 10600 10596 10594 10590 10586 10578 10575 10565 10563 10556 10547 10541 10535 10528 10520 10515
10605 10607 10608 10605 10609 10610 10610 10611 10610 10609 10606 10604 10601 10600 10595 10592 10588 10581 10578 10574 10569 10565 10559 10551 10545 10540 10534 10526 10518 10510 10504 10496
10598 10599 10600 10601 10601 10600 10599 10599 10598 10597 10596 10590 10588 10585 10582 10579 10574 10571 10566 10562 10552 10551 10543 10537 10530 10524 10517 10511 10502 10493 10486 10478